Regional Weather Roundup
Issued by NWS

Home | Current Version | Previous Version | Graphics & Text | Print | Product List | Glossary On
Versions: 1 2 3 4 5 6 7 8 9 10 11 12 13 14 15 16 17 18 19 20 21 22 23 24 25 26 27 28 29 30 31 32 33 34 35 36 37 38 39 40 41 42 43 44 45 46 47 48 49 50
808
ASUS43 KFSD 131802
RWRSD

WEATHER ROUNDUP FOR SOUTH DAKOTA
NATIONAL WEATHER SERVICE SIOUX FALLS SD
1200 PM CST SAT FEB 13 2016

NOTE: "FAIR" INDICATES FEW OR NO CLOUDS BELOW 12,000 FEET WITH NO
SIGNIFICANT WEATHER AND/OR OBSTRUCTIONS TO VISIBILITY.


SDZ001>005-009-010-012>017-131900-
NORTHWEST AND NORTH CENTRAL SOUTH DAKOTA

CITY           SKY/WX    TMP DP  RH WIND       PRES   REMARKS
BUFFALO          N/A     24  22  91 SE17      29.82F WCI  11
FAITH            N/A     22  18  85 SE23      29.95F WCI   6
MOBRIDGE       LGT SNOW  15   9  76 SE15      30.12F WCI   0
$$

SDZ012>016-024>037-041>051-057-063-072>074-131900-
SOUTHWEST AND SOUTH CENTRAL SOUTH DAKOTA

CITY           SKY/WX    TMP DP  RH WIND       PRES   REMARKS
RAPID CTY ARPT CLOUDY    40  32  73 S10       29.91F
PIERRE         CLOUDY    23  15  71 SE17      30.15S WCI   9
CUSTER         CLOUDY    45  27  49 W14G22    29.89F
ELLSWORTH AFB  CLOUDY    39  33  78 S10       29.90F
PHILIP         CLOUDY    35  28  75 SE14      30.00F WCI  26
PINE RIDGE     CLOUDY    40  31  70 S16G24    29.95F
WINNER         CLOUDY    27  14  58 S26G32    30.13F WCI  12
$$

SDZ004>011-016>023-039-040-131900-
NORTHEAST SOUTH DAKOTA

CITY           SKY/WX    TMP DP  RH WIND       PRES   REMARKS
ABERDEEN       CLOUDY    12  -1  56 SE17      30.34F WCI  -5
WATERTOWN      CLOUDY     7  -5  57 SE15      30.34F WCI -10
BROOKINGS      CLOUDY     5  -5  63 SE16      30.38F WCI -14
SISSETON         N/A      3  -4  72 S15       30.42F WCI -16
$$

SDZ017-020-022-023-036>040-048>070-131900-
SOUTHEAST SOUTH DAKOTA

CITY           SKY/WX    TMP DP  RH WIND       PRES   REMARKS
SIOUX FALLS    CLOUDY     6  -3  66 S13       30.43F WCI -10
HURON          CLOUDY    10   0  63 SE21G29   30.30F WCI  -9
CHAMBERLAIN    CLOUDY    21  12  67 SE17G28   30.20F WCI   6
MITCHELL       CLOUDY    11   3  70 SE21      30.36F WCI  -8
YANKTON        CLOUDY    10   1  67 SE18      30.42F WCI  -8
$$

ABBREVIATIONS USED IN REMARKS
   TC - TEMPERATURE IN CELSIUS
  WCI - WIND CHILL INDEX
   HX - HEAT INDEX
  VSB - VISIBILITY





USA.gov is the U.S. government's official web portal to all federal, state and local government web resources and services.